TimeEST,TemperatureF,Dew PointF,Humidity,Sea Level PressureIn,VisibilityMPH,Wind Direction,Wind SpeedMPH,Gust SpeedMPH,PrecipitationIn,Events,Conditions,WindDirDegrees,DateUTC
12:51 AM,35.1,19.0,52,30.24,10.0,NNW,15.0,-,N/A,,Partly Cloudy,330,2012-12-06 05:51:00
1:51 AM,34.0,19.0,54,30.26,10.0,NNW,13.8,-,N/A,,Partly Cloudy,330,2012-12-06 06:51:00
2:51 AM,34.0,18.0,52,30.28,10.0,NNW,15.0,-,N/A,,Partly Cloudy,340,2012-12-06 07:51:00
3:51 AM,33.1,18.0,54,30.28,10.0,North,8.1,-,N/A,,Partly Cloudy,350,2012-12-06 08:51:00
4:51 AM,32.0,17.1,54,30.30,10.0,NNW,12.7,-,N/A,,Partly Cloudy,330,2012-12-06 09:51:00
5:51 AM,30.9,15.1,52,30.32,10.0,NNW,9.2,-,N/A,,Clear,340,2012-12-06 10:51:00
6:51 AM,30.0,15.1,54,30.35,10.0,NNW,10.4,-,N/A,,Scattered Clouds,340,2012-12-06 11:51:00
7:51 AM,30.9,15.1,52,30.37,10.0,NNW,9.2,-,N/A,,Scattered Clouds,340,2012-12-06 12:51:00
8:51 AM,32.0,14.0,48,30.38,10.0,North,16.1,-,N/A,,Scattered Clouds,360,2012-12-06 13:51:00
9:51 AM,35.1,14.0,42,30.38,10.0,NNE,12.7,-,N/A,,Scattered Clouds,20,2012-12-06 14:51:00
10:51 AM,36.0,15.1,43,30.37,10.0,NNW,10.4,-,N/A,,Scattered Clouds,340,2012-12-06 15:51:00
11:51 AM,37.9,15.1,39,30.35,10.0,Variable,4.6,-,N/A,,Mostly Cloudy,0,2012-12-06 16:51:00
12:51 PM,39.9,12.9,33,30.32,10.0,NNW,3.5,-,N/A,,Mostly Cloudy,330,2012-12-06 17:51:00
1:51 PM,41.0,14.0,33,30.30,10.0,North,6.9,-,N/A,,Mostly Cloudy,350,2012-12-06 18:51:00
2:51 PM,39.9,14.0,35,30.30,10.0,NW,3.5,-,N/A,,Mostly Cloudy,320,2012-12-06 19:51:00
3:51 PM,37.9,15.1,39,30.30,10.0,NE,4.6,-,N/A,,Mostly Cloudy,40,2012-12-06 20:51:00
4:51 PM,36.0,16.0,44,30.31,10.0,ENE,4.6,-,N/A,,Mostly Cloudy,60,2012-12-06 21:51:00
5:51 PM,37.0,16.0,42,30.31,10.0,East,3.5,-,N/A,,Mostly Cloudy,100,2012-12-06 22:51:00
6:51 PM,35.1,18.0,50,30.32,10.0,East,3.5,-,N/A,,Mostly Cloudy,80,2012-12-06 23:51:00
7:51 PM,34.0,18.0,52,30.32,10.0,ESE,4.6,-,N/A,,Mostly Cloudy,110,2012-12-07 00:51:00
8:51 PM,33.1,19.9,59,30.32,10.0,ESE,3.5,-,N/A,,Mostly Cloudy,110,2012-12-07 01:51:00
9:51 PM,36.0,21.0,55,30.32,10.0,Calm,Calm,-,N/A,,Mostly Cloudy,0,2012-12-07 02:51:00
10:51 PM,32.0,21.0,64,30.31,10.0,Calm,Calm,-,N/A,,Mostly Cloudy,0,2012-12-07 03:51:00
11:51 PM,30.9,21.0,67,30.30,10.0,Calm,Calm,-,N/A,,Mostly Cloudy,0,2012-12-07 04:51:00